When you browse on this site, cookies collect data to enhance your experience and personalize the content and advertising you see.
Visit our Privacy Policy to learn more. By continuing to use the site, you agree to this use of cookies and data.
  • In Portugal
  • List of Countries
  • For 7 days
  • Water Temperature
  • Weather Map
  • Weather Widgets
  • user-avatar
    Login

    Hourly Weather Pathiu

    Today, 7 April, Tuesday

    Time Temperature Precipitation Wind Pressure Humidity
    00:00 +23°C° 0 mm 0 mps 758 mmHg 82%
    01:00 +23°C° 0 mm 0 mps 758 mmHg 83%
    02:00 +24°C° 0 mm 1 mps 757 mmHg 84%
    03:00 +24°C° 0 mm 1 mps 757 mmHg 85%
    04:00 +24°C° 0 mm 1 mps 756 mmHg 86%
    05:00 +25°C° 0 mm 1 mps 757 mmHg 84%
    06:00 +25°C° 0 mm 1 mps 757 mmHg 81%
    07:00 +26°C° 0 mm 1 mps 757 mmHg 79%
    08:00 +29°C° 0 mm 1 mps 758 mmHg 66%
    09:00 +33°C° 0 mm 1 mps 758 mmHg 52%
    10:00 +37°C° 0 mm 1 mps 759 mmHg 39%
    11:00 +38°C° 0 mm 2 mps 758 mmHg 36%
    12:00 +39°C° 0 mm 3 mps 757 mmHg 32%
    13:00 +40°C° 0 mm 3 mps 756 mmHg 29%
    14:00 +40°C° 0 mm 4 mps 756 mmHg 33%
    15:00 +38°C° 0 mm 4 mps 755 mmHg 36%
    16:00 +37°C° 0 mm 4 mps 754 mmHg 40%
    17:00 +35°C° 0 mm 3 mps 755 mmHg 53%
    18:00 +31°C° 0 mm 2 mps 755 mmHg 66%
    19:00 +29°C° 0 mm 2 mps 755 mmHg 79%
    20:00 +28°C° 0 mm 1 mps 756 mmHg 84%
    21:00 +27°C° 0 mm 1 mps 757 mmHg 88%
    22:00 +26°C° 0 mm 1 mps 757 mmHg 92%
    23:00 +26°C° 0 mm 1 mps 757 mmHg 93%

    Tomorrow, 8 April, Wednesday

    Time Temperature Precipitation Wind Pressure Humidity
    00:00 +26°C° 0 mm 1 mps 757 mmHg 94%
    01:00 +26°C° 0 mm 1 mps 757 mmHg 95%
    02:00 +26°C° 0 mm 1 mps 757 mmHg 96%
    03:00 +26°C° 0 mm 1 mps 756 mmHg 96%
    04:00 +23°C° 0 mm 0 mps 756 mmHg 96%
    05:00 +26°C° 0 mm 1 mps 756 mmHg 94%
    06:00 +27°C° 0 mm 1 mps 757 mmHg 91%
    07:00 +27°C° 0 mm 1 mps 757 mmHg 89%
    08:00 +30°C° 0 mm 1 mps 758 mmHg 73%
    09:00 +33°C° 0 mm 1 mps 758 mmHg 58%
    10:00 +38°C° 0 mm 2 mps 758 mmHg 43%
    11:00 +39°C° 0 mm 2 mps 758 mmHg 39%
    12:00 +39°C° 0 mm 3 mps 757 mmHg 34%
    13:00 +41°C° 0 mm 4 mps 757 mmHg 30%
    14:00 +41°C° 0 mm 4 mps 756 mmHg 33%
    15:00 +40°C° 0 mm 4 mps 755 mmHg 36%
    16:00 +38°C° 0 mm 4 mps 755 mmHg 39%
    17:00 +35°C° 0 mm 3 mps 755 mmHg 50%
    18:00 +32°C° 0 mm 2 mps 756 mmHg 61%
    19:00 +29°C° 0 mm 2 mps 756 mmHg 72%
    20:00 +28°C° 0 mm 1 mps 757 mmHg 77%
    21:00 +27°C° 0 mm 1 mps 757 mmHg 82%
    22:00 +26°C° 0 mm 1 mps 758 mmHg 88%
    23:00 +26°C° 0 mm 1 mps 758 mmHg 89%

    Day after tomorrow, 9 April, Thursday

    Time Temperature Precipitation Wind Pressure Humidity
    00:00 +26°C° 0 mm 1 mps 757 mmHg 91%
    01:00 +26°C° 0 mm 1 mps 757 mmHg 93%
    02:00 +25°C° 0 mm 1 mps 757 mmHg 93%
    03:00 +25°C° 0 mm 1 mps 757 mmHg 94%
    04:00 +25°C° 0 mm 1 mps 756 mmHg 94%
    05:00 +26°C° 0 mm 1 mps 757 mmHg 91%
    06:00 +26°C° 0 mm 1 mps 757 mmHg 88%
    07:00 +27°C° 0 mm 1 mps 758 mmHg 85%
    08:00 +30°C° 0 mm 2 mps 758 mmHg 75%
    09:00 +32°C° 0 mm 2 mps 759 mmHg 64%
    10:00 +36°C° 0 mm 3 mps 759 mmHg 53%
    11:00 +37°C° 0 mm 3 mps 758 mmHg 49%
    12:00 +38°C° 0 mm 3 mps 758 mmHg 44%
    13:00 +40°C° 0 mm 4 mps 757 mmHg 39%
    14:00 +38°C° 0 mm 4 mps 757 mmHg 40%
    15:00 +38°C° 0 mm 4 mps 756 mmHg 42%
    16:00 +37°C° 0 mm 4 mps 756 mmHg 43%
    17:00 +35°C° 0 mm 3 mps 756 mmHg 53%
    18:00 +33°C° 0 mm 3 mps 756 mmHg 62%
    19:00 +29°C° 0 mm 2 mps 757 mmHg 72%
    20:00 +29°C° 0 mm 2 mps 757 mmHg 77%
    21:00 +28°C° 0 mm 2 mps 758 mmHg 81%
    22:00 +27°C° 0 mm 2 mps 758 mmHg 86%
    23:00 +27°C° 0 mm 2 mps 758 mmHg 88%

    10 April, Friday

    Time Temperature Precipitation Wind Pressure Humidity
    00:00 +26°C° 0 mm 1 mps 758 mmHg 89%
    01:00 +26°C° 0 mm 1 mps 758 mmHg 91%
    02:00 +26°C° 0.2 mm 1 mps 757 mmHg 91%
    03:00 +26°C° 0.2 mm 1 mps 757 mmHg 92%
    04:00 +24°C° 0.2 mm 0 mps 757 mmHg 93%
    05:00 +26°C° 0 mm 1 mps 757 mmHg 90%
    06:00 +27°C° 0 mm 1 mps 758 mmHg 87%
    07:00 +27°C° 0 mm 1 mps 758 mmHg 84%
    08:00 +30°C° 0 mm 2 mps 758 mmHg 71%
    09:00 +34°C° 0 mm 2 mps 759 mmHg 59%
    10:00 +37°C° 0 mm 3 mps 759 mmHg 46%
    11:00 +38°C° 0 mm 3 mps 759 mmHg 43%
    12:00 +38°C° 0 mm 4 mps 758 mmHg 41%
    13:00 +40°C° 0 mm 4 mps 758 mmHg 39%
    14:00 +38°C° 0 mm 4 mps 757 mmHg 42%
    15:00 +37°C° 0 mm 4 mps 757 mmHg 45%
    16:00 +36°C° 0 mm 4 mps 756 mmHg 48%
    17:00 +34°C° 0.1 mm 4 mps 757 mmHg 57%
    18:00 +31°C° 0.1 mm 3 mps 757 mmHg 67%
    19:00 +29°C° 0.1 mm 3 mps 757 mmHg 76%
    20:00 +29°C° 0.2 mm 2 mps 758 mmHg 80%
    21:00 +28°C° 0.2 mm 2 mps 758 mmHg 84%
    22:00 +27°C° 0.2 mm 1 mps 759 mmHg 88%
    23:00 +26°C° 0 mm 1 mps 759 mmHg 89%

    11 April, Saturday

    Time Temperature Precipitation Wind Pressure Humidity
    00:00 +26°C° 0 mm 1 mps 758 mmHg 90%
    01:00 +26°C° 0 mm 1 mps 758 mmHg 92%
    02:00 +26°C° 0 mm 1 mps 758 mmHg 92%
    03:00 +25°C° 0 mm 1 mps 757 mmHg 92%
    04:00 +25°C° 0 mm 1 mps 757 mmHg 92%
    05:00 +26°C° 0 mm 1 mps 757 mmHg 90%
    06:00 +26°C° 0 mm 1 mps 758 mmHg 87%
    07:00 +27°C° 0 mm 1 mps 758 mmHg 84%
    08:00 +30°C° 0 mm 2 mps 758 mmHg 72%
    09:00 +34°C° 0 mm 3 mps 759 mmHg 59%
    10:00 +36°C° 0 mm 3 mps 759 mmHg 46%
    11:00 +37°C° 0 mm 3 mps 758 mmHg 43%
    12:00 +38°C° 0 mm 3 mps 758 mmHg 40%
    13:00 +38°C° 0 mm 4 mps 757 mmHg 37%
    14:00 +38°C° 0 mm 4 mps 757 mmHg 40%
    15:00 +37°C° 0 mm 4 mps 756 mmHg 44%
    16:00 +36°C° 0 mm 4 mps 755 mmHg 47%
    17:00 +34°C° 0 mm 3 mps 756 mmHg 56%
    18:00 +31°C° 0 mm 3 mps 756 mmHg 65%
    19:00 +29°C° 0 mm 2 mps 756 mmHg 74%
    20:00 +28°C° 0 mm 2 mps 757 mmHg 79%
    21:00 +28°C° 0 mm 2 mps 757 mmHg 83%
    22:00 +27°C° 0 mm 1 mps 758 mmHg 87%
    23:00 +26°C° 0 mm 1 mps 758 mmHg 89%

    12 April, Sunday

    Time Temperature Precipitation Wind Pressure Humidity
    00:00 +26°C° 0 mm 1 mps 758 mmHg 90%
    01:00 +26°C° 0 mm 1 mps 757 mmHg 92%
    02:00 +26°C° 0 mm 1 mps 757 mmHg 92%
    03:00 +25°C° 0 mm 1 mps 756 mmHg 93%
    04:00 +25°C° 0 mm 1 mps 756 mmHg 94%
    05:00 +26°C° 0 mm 1 mps 756 mmHg 91%
    06:00 +26°C° 0 mm 1 mps 757 mmHg 89%
    07:00 +27°C° 0 mm 1 mps 757 mmHg 86%
    08:00 +30°C° 0 mm 1 mps 758 mmHg 73%
    09:00 +34°C° 0 mm 2 mps 758 mmHg 59%
    10:00 +37°C° 0 mm 2 mps 758 mmHg 46%
    11:00 +38°C° 0 mm 3 mps 758 mmHg 41%
    12:00 +39°C° 0 mm 3 mps 757 mmHg 37%
    13:00 +40°C° 0 mm 3 mps 756 mmHg 33%
    14:00 +40°C° 0 mm 4 mps 756 mmHg 35%
    15:00 +40°C° 0 mm 4 mps 755 mmHg 37%
    16:00 +38°C° 0 mm 4 mps 755 mmHg 39%
    17:00 +35°C° 0 mm 3 mps 755 mmHg 51%
    18:00 +33°C° 0 mm 3 mps 755 mmHg 62%
    19:00 +29°C° 0 mm 2 mps 756 mmHg 73%
    20:00 +28°C° 0 mm 1 mps 756 mmHg 77%
    21:00 +27°C° 0 mm 1 mps 757 mmHg 82%
    22:00 +25°C° 0 mm 0 mps 757 mmHg 87%
    23:00 +24°C° 0 mm 0 mps 757 mmHg 88%
    Show more